Content
SEND FEEDBACK

Daily
Averages
Monthly
Summary
United States of America

CHATSWORTH, NEW JERSEY


Home > North America > United States > New Jersey
Elevation: 90 feet     Latitude: 39 44N     Longitude: 074 32W

WEATHER
 
SELECT A DAY
Number of Records: 174,328;   Date Range: 11/5/97 - 9/3/14
 
SHARE

PRINT THIS DATA

[ ← Previous Day ]
WEATHER ALMANAC - FEBRUARY 13, 2013
[ Next Day → ]
[ °C ]   °F
Weather ElementAverageHighLow
Temperature33.4 °F46 °F (2:54 pm)25 °F (5:54 am)
Dewpoint27.9 °F32 °F (6:54 pm)21.9 °F (3:54 am)
Humidity81.8 %96 % (8:54 pm)50 % (2:54 pm)
Barometer29.78 in29.98 in (1:54 am)29.69 in (5:54 pm)
Wind Speed3.5 mph6.9 mph (3:54 pm)
Weather ElementAverage
Visibility5.5 mi
Wind DirectionENE (82.2 °)

Weather ElementTotal
Precipitation0.19 in
Heating Degree Days29.5 (Base 65)
Averaged from 32 records on February 13, 2013
WEATHER CONDITIONS BREAKOUT
WIND DIRECTION BREAKOUT
WEATHER BY HOUR - FEBRUARY 13, 2013
[ °C ]   °F
Local TimeTemperatureDewpointHumidityBarometerVisibilityWind DirectionWind SpeedGust SpeedPrecipitationEventsConditions
1:54 AM28.0 °F24.1 °F85 %29.98 in10.0 miCalmClear
2:54 AM27.0 °F23.0 °F85 %29.96 in10.0 miCalmClear
3:54 AM26.1 °F21.9 °F84 %29.93 in10.0 miCalmClear
4:54 AM26.1 °F21.9 °F84 %29.93 in10.0 miCalmClear
5:54 AM25.0 °F21.9 °F88 %29.93 in9.0 miCalmClear
6:54 AM25.0 °F21.9 °F88 %29.93 in8.0 miCalmClear
7:54 AM28.0 °F25.0 °F88 %29.92 in8.0 miCalmClear
8:54 AM33.1 °F26.1 °F75 %29.91 in10.0 miCalmClear
9:54 AM35.1 °F26.1 °F70 %29.91 in10.0 miCalmClear
10:54 AM39.0 °F26.1 °F60 %29.88 in10.0 miENE (60°)4.6 mphClear
11:54 AM39.9 °F25.0 °F55 %29.86 in10.0 miEast (90°)4.6 mphClear
1:54 PM43.0 °F26.1 °F51 %29.77 in10.0 miESE (120°)5.8 mphPartly Cloudy
2:54 PM46.0 °F28.0 °F50 %29.75 in10.0 miENE (70°)5.8 mphClear
3:54 PM44.1 °F27.0 °F51 %29.71 in10.0 miNE (40°)6.9 mphScattered Clouds
5:54 PM41.0 °F28.9 °F62 %29.69 in10.0 miEast (100°)6.9 mph0.00 inOvercast
6:54 PM37.9 °F32.0 °F79 %29.70 in9.0 miESE (110°)3.5 mph0.01 inRainLight Rain
7:30 PM35.6 °F30.2 °F81 %29.71 in4.0 miNE (50°)3.5 mph0.01 inSnowLight Snow
7:47 PM33.8 °F30.2 °F87 %29.71 in2.5 miNE (50°)3.5 mph0.02 inSnowLight Snow
7:54 PM34.0 °F32.0 °F92 %29.71 in2.5 miNE (50°)3.5 mph0.03 inSnowLight Snow
7:59 PM33.8 °F30.2 °F87 %29.71 in1.8 miNE (50°)4.6 mph0.00 inSnowLight Snow
8:20 PM33.8 °F30.2 °F87 %29.71 in1.2 miNNE (20°)4.6 mph0.01 inSnowLight Snow
8:34 PM33.8 °F30.2 °F87 %29.70 in1.0 miNNE (20°)4.6 mph0.01 inSnowLight Snow
8:43 PM32.0 °F30.2 °F93 %29.71 in0.8 miNNE (20°)4.6 mph0.01 inSnowLight Snow
8:54 PM32.0 °F30.9 °F96 %29.71 in0.8 miNorth (10°)4.6 mph0.01 inSnowLight Snow
9:24 PM32.0 °F30.2 °F93 %29.70 in0.8 miNorth (10°)4.6 mph0.01 inSnowLight Snow
9:50 PM32.0 °F30.2 °F93 %29.70 in1.0 miNNE (20°)4.6 mph0.01 inSnowLight Snow
9:54 PM32.0 °F30.9 °F96 %29.70 in1.2 miNorth (10°)4.6 mph0.01 inSnowLight Snow
10:03 PM32.0 °F30.2 °F93 %29.69 in0.8 miNorth (360°)4.6 mph0.00 inSnowLight Snow
10:26 PM32.0 °F30.2 °F93 %29.69 in1.0 miNorth (350°)4.6 mph0.01 inSnowLight Snow
10:43 PM32.0 °F30.2 °F93 %29.70 in1.2 miNNW (340°)6.9 mph0.01 inSnowLight Snow
10:54 PM32.0 °F30.9 °F96 %29.70 in1.2 miNNW (340°)5.8 mph0.01 inSnowLight Snow
11:54 PM32.0 °F30.9 °F96 %29.73 in1.2 miNNW (340°)3.5 mph0.02 inSnowLight Snow
Hourly data recorded from KVAY, located miles away from Chatsworth, New Jersey







STORIES FROM OUR PARTNERS